CAPE
35 6 1 1 2 2 2 3 0 10 0 0 0 11 3 0 0 0 0 0 0 0 5 12 15 17 21 4 14 13 6 4 3 4 3 2 2 2 1 1 2 2 2 5
12 28 0 0 1 0 0 1 0 0 0 0 1 3 0 0 0 0 0 0 0 0 0 0 5 16 17 15 15 20 6 5 7 4 3 8 7 3 1 2 1 2 1 3
15 55 19 6 0 2 2 0 0 0 0 0 0 3 0 0 0 0 0 0 0 0 0 0 0 3 16 10 15 15 6 12 15 11 12 2 7 3 3 2 1 1 2 2
32 38 26 26 2 1 3 0 1 3 0 0 0 1 0 0 0 0 0 0 0 0 0 0 0 0 5 2 2 1 7 12 14 8 11 11 9 6 1 3 2 3 1 3
16 24 1 1 24 17 2 1 1 3 0 0 0 0 0 0 0 0 0 0 0 0 0 0 0 0 0 0 0 0 0 2 11 10 9 8 7 14 12 10 4 4 4 4
6 13 4 0 0 0 23 33 31 2 3 0 0 0 0 0 0 0 0 0 0 0 0 0 0 0 0 0 0 0 0 0 0 2 6 9 4 7 9 3 3 0 0 0
0 1 17 0 0 0 11 6 16 10 5 1 0 3 3 0 0 1 0 0 0 0 0 0 0 0 0 0 0 0 0 1 0 0 3 5 5 6 4 3 1 2 1 0
3 2 5 0 0 0 11 12 13 15 3 2 0 0 5 3 7 1 1 1 1 1 0 0 0 0 0 0 0 0 0 0 1 0 1 0 7 4 0 0 2 1 0 1
0 30 0 3 5 2 16 22 25 11 0 3 0 2 9 13 11 20 11 4 2 1 6 2 1 1 7 5 7 1 0 2 0 0 0 1 3 3 4 4 3 3 1 1
24 1 6 2 3 13 9 0 12 2 4 6 6 8 22 20 25 31 18 4 5 8 2 0 0 3 4 9 12 0 3 5 4 3 0 1 1 2 1 1 5 3 2 3
12 10 8 10 9 3 0 0 10 11 1 8 15 16 15 23 18 16 12 1 5 0 0 0 7 6 8 12 14 8 12 12 4 2 4 2 0 2 1 2 4 0 1 1
36 10 11 12 2 0 0 1 3 0 0 9 8 5 4 4 6 9 0 7 1 4 5 4 4 15 9 19 19 4 18 10 5 4 5 4 1 0 2 0 0 0 0 0
0 0 0 0 0 2 0 0 0 0 0 2 13 10 0 2 6 0 0 0 0 0 22 38 30 12 14 27 20 15 8 1 1 6 7 8 11 5 3 0 0 0 0 0
0 0 0 2 7 0 0 0 0 5 8 8 0 0 0 0 0 0 0 0 0 4 3 0 1 6 30 20 7 6 1 0 3 5 6 4 11 5 3 5 2 1 1 0
0 0 0 2 0 0 2 6 5 2 0 0 0 0 0 0 0 0 0 1 0 1 0 0 0 0 6 5 2 10 11 9 8 5 7 3 3 14 7 4 2 2 2 0
0 0 1 6 5 0 6 0 0 0 0 0 0 0 0 0 0 0 2 2 4 2 0 0 9 1 0 0 5 10 18 4 1 6 5 10 7 7 6 6 5 3 5 5
0 0 5 7 5 3 0 0 0 0 0 0 0 0 0 0 0 0 0 0 0 0 10 6 0 0 0 3 14 24 9 7 6 14 12 10 10 14 12 12 6 5 10 1
0 1 2 0 0 0 0 0 0 0 0 0 0 0 0 0 1 1 0 0 0 0 0 0 0 0 0 21 11 11 4 3 13 8 7 11 10 9 13 8 8 8 5 1
0 0 1 0 0 0 0 0 0 0 0 0 0 0 1 1 1 0 0 0 0 2 1 0 0 0 20 11 2 4 5 20 9 6 7 11 5 6 11 9 11 8 5 3
0 0 0 0 0 0 0 0 0 0 0 0 0 0 0 0 0 0 0 0 1 1 2 1 0 15 3 7 0 2 27 21 19 16 16 12 10 11 10 5 5 7 7 5
0 0 0 9 0 0 0 0 0 0 0 0 0 0 0 0 0 0 1 8 0 0 0 0 6 6 5 0 0 22 18 22 18 15 12 9 9 11 10 9 7 7 6 7
0 8 0 0 0 0 0 0 0 0 0 0 0 0 0 0 0 0 2 0 3 1 0 3 12 0 0 1 16 17 15 15 14 10 8 7 8 10 10 9 5 6 6 6
13 14 13 0 0 0 0 0 0 0 0 0 0 0 0 0 1 3 8 0 0 0 0 15 7 0 0 11 10 14 16 13 12 10 10 6 10 11 10 9 7 7 6 4
13 18 21 42 0 0 0 0 0 0 0 0 0 0 0 0 8 10 3 0 3 1 7 14 4 2 0 15 16 10 12 16 12 11 11 6 9 9 8 7 6 6 3 3
20 20 21 20 25 14 5 3 2 0 1 0 3 0 0 4 8 3 3 1 3 5 2 5 5 10 13 13 14 9 9 9 11 11 8 11 10 7 6 6 3 4 5 5
8 15 17 14 27 19 4 1 0 8 1 10 13 21 10 0 0 2 7 0 2 6 2 4 8 9 2 3 4 5 9 8 7 9 7 7 5 8 5 3 2 1 4 6
7 0 6 10 10 11 2 0 5 1 6 17 0 0 1 2 2 0 1 5 2 1 2 2 1 0 1 2 0 2 7 6 1 11 7 5 5 7 6 6 6 6 3 2
CIN
-3 -2 -1 0 0 0 0 0 0 0 0 0 0 -9 -6 0 0 0 0 0 0 -1 0 0 0 0 0 0 0 0 0 0 0 0 0 0 0 0 0 0 0 0 0 0
-1 -1 0 0 0 0 0 0 0 0 0 0 -7 0 0 0 0 0 0 0 0 0 0 0 0 0 0 0 0 0 0 0 0 0 0 0 0 0 0 0 0 0 0 0
-2 -2 -4 -20 0 -1 0 0 0 0 0 0 0 -1 0 0 0 0 0 0 0 0 0 0 0 0 0 0 0 0 0 0 0 0 0 0 0 0 0 0 0 0 0 0
-1 -10 -2 -8 0 0 0 0 0 -2 0 0 0 -3 0 0 0 0 0 0 0 0 0 0 0 0 0 0 -1 0 0 0 0 0 0 0 0 0 0 0 0 0 0 0
0 0 -2 0 -2 -11 0 -3 -2 -1 -1 0 0 0 0 0 0 0 0 0 0 0 0 0 0 0 0 0 0 0 0 0 0 0 0 0 0 0 0 0 0 0 0 0
-8 -5 -2 0 0 0 -14 0 -1 -1 -1 0 0 0 0 0 0 0 0 0 0 0 0 0 0 0 0 0 0 0 0 0 0 0 0 0 0 0 -1 -1 0 0 0 -5
0 0 0 0 0 0 -4 -1 -1 -1 -1 0 0 0 0 0 0 -1 0 0 0 0 0 0 0 0 0 0 0 0 0 -3 0 0 -1 0 -1 -1 -1 -1 -1 -1 -5 -5
0 -1 -1 0 0 0 0 0 -1 -1 -2 0 0 0 0 0 0 -1 -1 0 -1 0 0 0 0 0 0 0 0 0 0 0 -2 0 0 0 -1 -2 0 -1 -1 -1 0 -2
0 -1 0 -6 -2 -1 -1 0 -2 -1 0 0 0 -1 -1 0 0 0 0 0 0 0 0 -1 -1 0 0 0 -1 -3 0 0 0 -10 0 -2 -1 -2 -1 -1 -1 -1 -1 0
-1 -1 0 0 -1 -20 -1 0 -1 -7 -2 -2 -1 0 0 0 0 0 0 -2 -1 0 -1 0 0 0 0 0 0 0 0 0 -2 -2 0 -2 -2 -2 0 -2 -1 -1 -1 0
-1 -1 -5 -22 -3 -3 0 0 -1 -1 -1 0 0 0 0 0 0 0 0 0 0 0 0 0 0 0 0 0 0 -1 0 0 0 -1 -1 -1 -3 -3 -3 -3 -2 -1 -1 -1
-1 -2 -1 -1 -4 0 0 0 -1 0 0 -1 0 -1 0 -1 0 0 -1 -1 0 0 0 -3 -5 0 0 0 0 0 0 0 0 0 -1 -3 -4 -5 -4 -2 -1 -2 0 0
0 0 0 0 0 -2 0 0 -1 0 0 -1 0 -1 -1 0 0 -3 0 0 0 0 0 0 0 0 0 0 0 0 0 0 0 0 -1 -1 -1 -2 -1 0 -4 -6 -2 -5
0 0 0 -1 -3 0 0 0 0 -1 -2 0 0 0 0 0 0 0 0 0 0 -1 -5 0 -4 -2 0 0 0 -1 0 -1 -4 -1 -1 -1 0 -2 -4 0 0 -2 -13 0
0 0 0 -2 -5 0 -1 -1 -1 -1 0 0 0 0 0 0 0 0 0 0 0 0 0 0 -1 0 0 0 -1 -2 -2 -1 -1 -2 -1 -5 -1 0 -3 -3 -3 -3 -8 -2
0 0 -1 -1 0 -2 -2 0 0 0 0 0 0 0 0 0 0 0 0 0 0 0 0 -2 0 -1 0 0 -7 -2 -1 -2 -5 -1 -1 0 -1 -1 -1 -1 -1 -3 -1 0
0 0 -1 -1 0 -1 0 0 0 0 0 0 0 0 0 0 0 0 0 0 0 0 -1 -5 0 0 0 -8 -3 -1 -2 -1 0 -1 -1 -1 -1 -1 -1 0 -1 -1 -1 -5
0 -1 -3 0 0 0 0 0 0 0 0 0 0 0 0 0 0 0 0 0 0 0 0 0 0 0 0 -1 -1 -2 -5 -4 0 0 -1 0 -1 -1 -1 -1 0 -1 -1 -1
0 0 0 0 0 0 0 0 0 0 0 0 0 0 0 -1 0 0 0 0 0 0 0 0 0 0 0 -2 -13 -6 -1 0 -2 -1 0 0 -1 -1 0 0 0 0 0 0
0 0 0 0 0 0 0 0 0 0 0 0 0 0 0 0 0 0 0 0 -1 0 0 0 0 0 0 -2 -1 0 0 0 0 0 0 0 -1 0 0 -1 0 0 0 0
0 0 0 -4 0 0 0 0 0 0 0 0 0 0 0 0 0 0 -4 0 0 0 0 -1 0 0 0 0 -3 0 0 0 0 0 0 0 0 0 0 0 0 0 0 0
0 -10 0 0 0 0 0 0 0 0 0 0 0 0 0 0 0 0 -19 0 0 -3 0 -3 0 0 0 0 0 0 0 0 0 0 0 0 0 0 0 0 0 0 0 0
-3 -4 -4 0 0 0 0 0 0 0 0 0 0 0 0 0 0 0 0 -1 0 0 0 0 -5 -1 0 -1 0 0 0 0 0 0 0 0 0 0 0 0 0 0 0 0
-7 -5 -3 -1 0 0 0 0 0 0 0 0 0 0 0 0 0 -1 -7 -1 -2 0 0 0 -3 -6 0 0 0 0 0 0 0 0 0 0 0 0 0 0 0 0 0 0
-9 -8 -9 -8 -3 -6 -15 -3 0 0 -2 -1 -4 0 0 -2 0 -1 0 -1 -1 0 -2 0 0 0 0 0 0 -1 0 -1 0 0 0 0 0 0 0 0 0 0 0 0
-1 -5 -5 -3 -6 -5 -21 -24 0 0 0 0 -4 -4 -7 0 0 0 0 -1 0 -1 0 -1 0 0 -1 0 0 0 0 0 0 0 0 0 0 0 0 0 0 -1 0 0
-3 0 -7 -3 -4 -18 -46 -33 -9 0 0 -2 -1 -1 -1 0 0 0 0 0 0 -1 0 0 0 -1 -1 -1 -1 0 -1 0 -1 0 0 0 0 0 0 0 0 0 0 0
Wind_Speed
0 9 10 11 11 11 11 9 5 6 6 9 11 12 10 12 12 14 14 15 15 15 13 12 15 15 14 16 17 17 18 19 19 18 17 17 16 16 14 16 15 16 17 15
3 9 13 12 10 10 7 5 3 1 5 6 14 6 10 13 15 16 16 15 14 14 15 14 13 14 14 14 16 14 17 17 15 11 16 14 15 14 14 15 15 15 16 14
5 9 14 6 3 6 7 4 2 5 5 9 10 8 10 13 15 16 16 16 15 13 13 13 13 13 12 13 13 15 15 16 13 14 12 15 12 12 14 10 9 15 13 11
6 11 2 1 6 3 4 5 4 3 8 10 13 9 12 13 14 15 15 14 13 11 10 9 11 11 11 10 10 12 13 13 13 13 14 8 8 8 9 11 11 8 9 11
5 5 11 5 5 0 2 3 8 9 10 14 16 7 16 15 13 13 13 11 11 11 10 10 10 10 11 12 10 10 11 10 12 12 11 15 15 14 12 7 8 10 7 6
5 5 1 5 9 7 3 2 11 11 11 12 13 9 10 13 12 12 13 11 12 13 11 11 11 10 10 11 12 11 11 11 10 10 11 12 12 13 11 11 9 8 8 6
2 3 3 6 10 13 3 6 9 9 12 12 10 8 9 11 12 11 13 14 11 12 11 13 12 14 13 10 12 12 13 9 7 10 9 10 9 8 10 10 6 4 4 6
3 2 3 6 6 6 4 8 10 9 9 8 10 11 11 12 13 13 14 15 14 11 11 10 11 12 14 14 13 13 14 13 9 7 8 9 10 10 9 9 8 9 8 5
2 2 4 10 2 5 5 5 7 5 9 10 10 10 12 11 13 12 12 12 14 12 12 12 13 13 13 14 13 13 15 12 12 7 8 8 9 9 8 10 9 10 10 8
2 5 8 6 3 3 7 9 6 7 6 5 8 9 12 11 11 11 13 13 13 14 14 14 14 15 14 15 14 14 15 13 10 10 12 12 8 7 8 8 9 9 9 10
7 8 3 8 3 3 7 9 4 5 6 9 10 11 11 11 12 12 11 12 12 13 13 14 14 14 14 15 14 13 14 13 12 10 11 10 9 7 7 8 7 9 9 10
7 4 4 4 6 7 6 7 6 5 7 9 9 10 12 10 10 10 11 10 11 12 10 11 13 13 13 11 12 14 13 11 10 10 8 7 8 8 7 8 12 14 14 10
6 6 4 2 7 5 2 5 5 8 9 11 9 8 11 11 11 13 14 15 14 13 10 9 11 13 12 11 11 12 12 13 10 9 9 9 9 8 11 9 10 11 13 15
4 5 5 7 2 3 4 6 3 7 9 11 13 12 11 11 13 13 14 13 12 13 10 8 10 10 11 10 12 12 13 12 8 8 8 9 9 8 7 9 11 10 8 11
4 3 5 5 3 5 1 4 8 11 12 11 11 10 11 11 9 11 10 11 12 12 11 10 8 9 10 10 10 10 10 8 9 9 8 9 9 7 7 8 9 10 10 7
3 4 4 2 2 4 4 8 8 10 10 10 10 11 11 8 6 7 8 9 10 9 10 9 8 10 10 11 11 9 8 11 10 8 9 8 8 8 8 8 9 8 9 10
6 5 5 3 6 4 5 6 7 7 8 8 9 10 9 7 6 7 8 9 9 8 7 5 7 8 9 8 6 7 8 9 12 8 8 9 9 9 9 9 9 8 8 9
5 1 4 3 3 4 3 3 3 5 6 7 6 5 3 4 7 8 9 10 9 9 4 9 7 11 9 7 8 8 8 8 8 9 9 8 9 9 9 10 10 10 9 10
1 1 5 3 2 1 0 0 2 3 3 3 3 3 5 5 5 7 8 9 8 7 9 10 11 10 10 8 8 8 8 7 9 9 9 10 9 9 9 9 10 10 10 10
3 2 2 3 4 4 2 4 4 2 3 3 1 4 4 4 4 6 8 9 7 5 9 9 10 9 12 11 11 8 7 8 9 8 7 8 8 9 8 11 10 10 9 9
4 5 5 4 4 5 4 4 4 3 4 4 4 3 3 6 7 6 7 5 8 8 10 8 8 8 8 9 9 7 8 8 8 8 8 8 8 8 8 9 9 9 10 9
5 4 2 6 6 6 5 5 6 5 5 4 4 3 3 8 4 4 2 5 5 7 7 5 5 9 9 12 7 8 8 8 8 7 7 8 8 8 8 8 9 9 9 9
7 7 7 8 8 8 8 8 5 6 5 4 4 5 4 5 5 4 4 6 5 6 6 5 7 8 10 6 7 8 9 9 8 8 7 8 8 8 8 8 8 8 8 9
6 5 7 5 8 6 7 7 8 6 7 5 5 6 5 4 3 4 4 5 5 8 6 4 7 8 9 5 6 7 7 8 9 9 8 9 8 7 7 8 9 8 8 9
6 6 6 6 6 5 7 7 5 6 8 9 7 8 8 4 1 3 3 5 5 6 5 6 8 8 6 7 7 7 7 7 8 8 9 9 8 8 9 8 9 9 9 9
8 5 4 5 4 4 3 4 4 5 2 4 4 2 4 2 2 3 3 5 4 5 4 4 4 5 6 7 7 8 7 8 8 8 9 9 10 9 8 9 8 9 9 9
4 3 3 4 4 3 3 4 4 3 4 1 1 4 3 2 1 3 3 3 4 4 4 5 5 6 7 7 7 7 7 7 9 8 7 7 9 9 10 10 9 8 9 9
Wind_Direction
308 126 101 83 58 46 56 34 47 30 344 328 309 303 355 2 4 6 7 8 11 7 7 14 2 5 8 1 358 2 10 17 14 7 13 19 18 25 17 20 21 23 22 12
356 165 106 76 68 68 62 44 73 299 294 262 290 315 9 6 10 8 3 7 10 5 5 11 11 5 7 4 357 8 14 11 2 3 16 2 20 22 13 14 15 16 21 8
277 200 165 78 5 79 105 136 343 5 280 276 315 65 29 8 11 7 4 2 0 10 9 9 17 5 6 7 359 2 19 4 7 3 17 11 2 11 20 8 359 28 357 5
297 333 219 124 180 215 83 99 13 28 3 349 341 89 53 27 10 1 359 8 357 2 8 21 15 7 355 1 20 8 6 2 355 2 7 5 358 359 7 10 22 16 349 351
319 359 109 51 117 166 307 23 345 13 17 355 347 331 52 18 12 358 352 2 359 353 7 14 25 359 6 357 7 12 0 2 1 357 354 4 4 0 2 333 0 21 2 321
348 313 73 32 350 359 125 201 309 3 9 3 350 354 6 355 1 357 350 359 357 353 3 5 13 7 352 359 354 8 360 347 1 4 354 5 354 354 348 349 348 10 316 355
343 309 105 18 349 312 247 348 340 13 8 7 355 352 350 344 351 353 347 356 0 351 360 358 13 359 352 1 353 1 344 343 13 355 347 359 348 345 350 351 343 287 318 320
253 241 220 346 5 19 329 322 347 3 7 355 348 338 347 347 345 346 345 350 357 354 349 5 6 0 346 349 350 354 340 347 358 10 17 343 350 341 336 330 339 344 348 355
254 343 258 263 291 303 285 295 298 345 1 2 338 339 327 339 339 337 340 346 349 342 345 357 3 354 344 335 344 356 340 343 343 360 7 346 344 340 335 345 344 340 351 340
277 242 245 276 257 358 338 334 4 359 328 338 329 327 321 338 334 339 342 356 338 342 354 355 351 344 343 339 354 348 334 335 349 357 351 347 344 339 343 340 334 335 330 327
265 292 159 246 158 343 355 320 295 303 352 335 338 332 336 338 348 339 352 338 356 352 359 346 339 338 343 350 347 337 328 338 348 353 346 332 334 333 332 325 322 322 322 318
236 278 254 324 18 352 330 309 340 341 327 318 336 327 323 333 321 322 337 350 351 349 338 332 323 332 346 339 335 340 334 342 345 336 326 322 319 321 312 291 303 298 295 291
290 296 339 301 279 276 15 321 352 6 308 301 310 321 341 336 339 359 357 352 346 334 334 343 338 330 332 344 343 344 340 335 331 325 329 328 322 327 326 319 278 279 283 281
234 266 271 272 52 348 12 348 314 291 325 357 355 351 349 357 17 359 349 338 329 340 349 2 339 340 334 353 335 338 334 334 326 320 318 316 314 314 314 312 322 323 292 279
310 246 256 277 7 286 206 319 347 355 354 350 352 349 4 25 10 349 337 341 349 344 346 329 337 331 345 334 334 325 322 323 325 317 311 309 308 314 308 313 314 310 311 303
243 249 264 259 254 287 10 10 0 346 352 351 351 358 354 26 360 322 344 352 339 334 323 329 346 345 336 326 325 323 326 322 315 311 309 308 315 313 311 316 316 317 316 320
270 258 247 281 305 39 20 25 358 354 351 352 357 354 350 350 324 351 336 331 316 313 329 350 344 344 328 317 315 324 328 318 316 308 318 318 319 319 318 320 320 317 322 318
248 288 59 40 29 36 34 28 359 358 1 6 3 338 14 350 335 319 315 310 313 308 310 357 7 332 326 338 341 327 315 316 322 324 318 323 328 324 326 326 324 327 330 329
156 221 146 158 118 131 162 11 36 37 75 69 37 346 322 300 301 306 304 305 309 12 357 351 338 321 333 341 333 319 313 312 323 322 322 325 327 330 328 332 329 330 334 336
189 168 168 181 165 200 218 119 156 124 112 141 210 267 289 292 292 290 294 294 55 27 357 340 326 349 350 339 336 315 324 328 324 326 335 331 330 328 331 333 328 330 341 343
228 228 212 206 173 148 138 127 147 183 189 175 212 254 278 290 288 274 293 337 24 17 352 333 345 355 333 338 322 338 342 341 338 341 340 334 330 329 333 335 337 340 343 345
246 264 190 178 171 189 172 186 212 166 174 200 226 227 257 284 290 298 103 54 2 358 335 321 343 346 333 329 351 349 347 345 347 345 344 338 336 338 340 340 341 344 343 341
225 232 225 188 204 211 188 202 191 172 187 198 214 234 257 291 290 319 319 21 339 337 315 320 335 332 338 345 357 351 351 349 351 345 345 344 343 342 343 341 339 342 340 343
273 281 287 284 184 200 232 207 181 198 193 216 221 188 238 299 313 298 52 344 325 327 316 332 340 340 337 344 348 344 348 350 351 347 345 345 343 343 346 347 343 343 343 342
235 244 247 247 245 235 207 235 208 236 219 196 220 165 205 228 351 342 10 323 324 325 321 338 341 343 344 348 348 350 348 344 349 349 348 349 349 351 350 350 350 346 343 345
271 271 279 293 254 228 188 152 218 248 235 239 184 188 103 74 330 326 314 326 320 326 330 337 342 346 352 349 350 352 350 348 349 347 352 352 349 349 352 347 348 348 348 347
305 304 276 272 284 186 151 174 181 221 239 231 85 119 140 141 5 288 12 328 326 334 339 346 351 354 356 355 359 359 357 357 341 344 356 351 349 349 352 350 348 349 351 349